This is the latest recevied weather packets stored in our database for station/object K7DC. If no packets are shown the sender has not sent any weather packets the latest 10 day(s).
| Time | Temp. | Humidity | Pressure | Rain* | Wind** | Luminosity | Snow |
|---|---|---|---|---|---|---|---|
| 1788053664 | 29.44° C | 47% | 1013.9 hPa | 0 mm | - | 3 W/m² | - |
| 1788053359 | 28.89° C | 47% | 1013.7 hPa | 0 mm | - | 5 W/m² | - |
| 1788053055 | 28.89° C | 48% | 1013.5 hPa | 0 mm | - | 6 W/m² | - |
| 1788052751 | 29.44° C | 49% | 1013.5 hPa | 0 mm | - | 8 W/m² | - |
| 1788052446 | 29.44° C | 50% | 1013.4 hPa | 0 mm | - | 10 W/m² | - |
| 1788052146 | 30° C | 47% | 1013.2 hPa | 0 mm | - | 10 W/m² | - |
| 1788051841 | 30.56° C | 44% | 1013.5 hPa | 0 mm | - | 8 W/m² | - |
| 1788051535 | 30.56° C | 42% | 1013.4 hPa | 0 mm | - | 7 W/m² | - |
| 1788051234 | 30.56° C | 42% | 1013.5 hPa | 0 mm | - | 9 W/m² | - |
| 1788050933 | 30.56° C | 43% | 1013.7 hPa | 0 mm | - | 13 W/m² | - |
| 1788050628 | 30.56° C | 43% | 1013.8 hPa | 0 mm | - | 16 W/m² | - |
| 1788050327 | 30.56° C | 42% | 1013.3 hPa | 0 mm | - | 16 W/m² | - |
| 1788050022 | 31.11° C | 41% | 1013.2 hPa | 0 mm | - | 16 W/m² | - |
| 1788049720 | 31.11° C | 39% | 1013.1 hPa | 0 mm | - | 17 W/m² | - |
| 1788049416 | 31.11° C | 39% | 1013 hPa | 0 mm | - | 18 W/m² | - |
| 1788049111 | 30.56° C | 39% | 1012.9 hPa | 0 mm | - | 18 W/m² | - |
| 1788048806 | 31.11° C | 39% | 1013.1 hPa | 0 mm | - | 18 W/m² | - |
| 1788048505 | 31.11° C | 38% | 1013.1 hPa | 0 mm | - | 19 W/m² | - |
| 1788048204 | 31.11° C | 39% | 1013 hPa | 0 mm | - | 21 W/m² | - |
| 1788047901 | 31.11° C | 39% | 1012.9 hPa | 0 mm | - | 24 W/m² | - |
| 1788047596 | 31.11° C | 40% | 1012.8 hPa | 0 mm | - | 26 W/m² | - |
| 1788047296 | 31.11° C | 41% | 1012.8 hPa | 0 mm | - | 28 W/m² | - |
| 1788046996 | 31.11° C | 40% | 1012.8 hPa | 0 mm | - | 30 W/m² | - |
| 1788046695 | 31.11° C | 41% | 1013.3 hPa | 0 mm | - | 32 W/m² | - |
| 1788046390 | 31.11° C | 40% | 1012.8 hPa | 0 mm | - | 31 W/m² | - |
* Rain latest hour (hover to see other rain measurements)
** Current wind speed in m/s (hover to see current wind gust speed)